Flag for Spain Weather past 2 weeks in Santa Cruz de Tenerife, Canary Islands, Spain

Now
63 °F

Passing clouds.


Feels Like: 63 °F
Forecast: 74 / 81 °F
Wind: 13 mph from Northwest

Location: Tenerife / Los Rodeos

Current Time: Aug 4, 2015 at 7:29:14 AM

Latest Report: Aug 4, 2015 at 7:00 AM


Visibility: N/A

Pressure: 30.12 "Hg

Humidity: 88%

Dew point: 59 °F

Location of Santa Cruz de TenerifeLocation

Historic Weather in Santa Cruz de Tenerife — Graph

°F

Santa Cruz de Tenerife temperature yesterday

Maximum temperature yesterday: 72 °F (at 3:00 PM)
Minimum temperature yesterday: 63 °F (at 6:00 AM)
Average temperature yesterday: 67 °F

Past Weeks' High & Low Weather Summary

 TemperatureHumidityPressure
High77 °F (Jul 23, 2:00 PM)100% (Jul 20, 6:00 AM)30.18 "Hg (Jul 20, 6:00 AM)
Low61 °F (Jul 27, 6:00 AM)53% (Aug 1, 2:00 PM)30.04 "Hg (Jul 20, 6:30 PM)
Average68 °F84%30.10 "Hg
* Reported Jul 20 6:00 AM — Aug 4 6:30 AM, Santa Cruz de Tenerife, Weather by CustomWeather, © 2015

Note: Actual official high and low records may vary slightly from our data, if they occured in-between our weather recording intervals... More about our weather records

Advertising

Santa Cruz de Tenerife weather history for previous 24 hours

 ConditionsComfort  
Time TempWeatherWind HumidityBarometerVisibility
6:30 AM
Tue, Aug 4
63 °FPassing clouds.15 mph88%30.12 "HgN/A
6:00 AM63 °FPassing clouds.14 mph88%30.12 "HgN/A
11:00 PM
Mon, Aug 3
63 °FPassing clouds.16 mph88%30.18 "HgN/A
10:30 PM63 °FPassing clouds.18 mph83%30.18 "HgN/A
10:00 PM63 °FPassing clouds.17 mph83%30.15 "HgN/A
9:30 PM63 °FScattered clouds.16 mph83%30.15 "HgN/A
9:00 PM64 °FPassing clouds.16 mph78%30.15 "HgN/A
8:30 PM64 °FPassing clouds.15 mph78%30.15 "HgN/A
8:00 PM66 °FPassing clouds.17 mph73%30.15 "HgN/A
7:30 PM68 °FPassing clouds.17 mph69%30.12 "HgN/A
7:00 PM68 °FPassing clouds.18 mph69%30.12 "HgN/A
6:30 PM68 °FPassing clouds.18 mph69%30.15 "HgN/A
6:00 PM70 °FPassing clouds.17 mph69%30.15 "HgN/A
5:30 PM72 °FPassing clouds.17 mph61%30.15 "HgN/A
5:00 PM70 °FPassing clouds.15 mph64%30.15 "HgN/A
4:30 PM70 °FPassing clouds.16 mph64%30.15 "HgN/A
4:00 PM70 °FPassing clouds.14 mph64%30.15 "HgN/A
3:30 PM72 °FPassing clouds.15 mph61%30.15 "HgN/A
3:00 PM72 °FPassing clouds.15 mph61%30.15 "HgN/A
2:30 PM70 °FPassing clouds.14 mph60%30.18 "HgN/A
2:00 PM70 °FPassing clouds.15 mph60%30.18 "HgN/A
1:30 PM70 °FPassing clouds.15 mph64%30.18 "HgN/A
1:00 PM70 °FPassing clouds.16 mph60%30.18 "HgN/A
12:30 PM68 °FPassing clouds.17 mph64%30.18 "HgN/A
12:00 PM68 °FPassing clouds.17 mph69%30.18 "HgN/A
11:30 AM68 °FScattered clouds.16 mph69%30.18 "HgN/A
11:00 AM68 °FScattered clouds.15 mph69%30.15 "HgN/A
10:30 AM66 °FScattered clouds.17 mph73%30.15 "HgN/A
10:00 AM66 °FScattered clouds.16 mph68%30.15 "HgN/A
9:30 AM64 °FPartly sunny.14 mph73%30.15 "HgN/A
9:00 AM64 °FPartly sunny.13 mph78%30.15 "HgN/A
8:30 AM64 °FScattered clouds.14 mph73%30.12 "HgN/A
8:00 AM63 °FPassing clouds.14 mph77%30.12 "HgN/A
7:30 AM63 °FPassing clouds.18 mph77%30.12 "HgN/A
7:00 AM63 °FPassing clouds.20 mph77%30.09 "HgN/A
Weather by CustomWeather, © 2015

See weather overviewHow to use our weather pages